Tramper — PHAA — position and weather

sailwx.info

Track history (hours):
 
Tides and Currents Weather Stations Pressure Air Temp Water Temp Dewpoint Dewpoint Depression Visibility Wind Speed Wind Dir Waves Ship Positions

Tramper

Last reported at 2014-Jul-28 06:00 UTC. Time now 2014-Jul-28 16:27 UTC.
Position N 36°36' E 000°12'.

Length 101 m; beam 20 m.

Type: Cargo ship. MMSI: 245867000.

Barometer 1015.0 mb
Air temperature 24.5 ° C
Visibility: greater than 5.4 NM
Dewpoint 20.9 ° C

Date/timePositionNaut miles runAvg speedWind from/ knotsBaromVisibWave heightAir tempDewpointWater temp
2014-Jul-28 06:00N 36°36' E 000°12'6612.2 1015.0 5.4 24.520.9
2014-Jul-28 00:33N 36°50' E 001°33'1212.0
2014-Jul-27 23:33N 36°51' E 001°48'4212.1
2014-Jul-27 20:05N 36°57' E 002°39'711.4
2014-Jul-27 19:26N 36°58' E 002°49'14 9.8
2014-Jul-27 18:00N 37°00' E 003°06'2114.2 080 / 81014.410.8 0.527.222.5
2014-Jul-27 16:33N 37°02' E 003°32'3711.9
2014-Jul-27 13:24N 37°07' E 004°18'1410.1
2014-Jul-27 12:00N 37°06' E 004°36'7012.8 080 / 61016.4 5.4 0.527.022.7
2014-Jul-27 06:30N 37°18' E 006°03'3511.5
2014-Jul-27 03:28N 37°23' E 006°46'1111.8
2014-Jul-27 02:34N 37°24' E 006°59'6311.9
2014-Jul-26 21:14N 37°33' E 008°19'1012.4
2014-Jul-26 20:25N 37°34' E 008°31'1112.1
2014-Jul-26 19:31N 37°36' E 008°45'1711.0
2014-Jul-26 18:00N 37°36' E 009°06'2011.6 290 / 151010.8 5.4 1.026.121.6
2014-Jul-26 16:17N 37°38' E 009°31'3910.4
2014-Jul-26 12:33N 37°38' E 010°20'4 7.0
2014-Jul-26 12:00N 37°36' E 010°24'3311.5 270 / 251009.4 2.2 1.026.223.4
2014-Jul-26 09:06N 37°28' E 011°04'3412.5
2014-Jul-26 06:23N 37°18' E 011°45'1012.5
2014-Jul-26 05:34N 37°16' E 011°58'1812.5
2014-Jul-26 04:07N 37°10' E 012°19'1012.7
2014-Jul-26 03:20N 37°08' E 012°32'1012.6
2014-Jul-26 02:34N 37°05' E 012°43'1312.7
2014-Jul-26 01:33N 37°02' E 012°59'1312.7
2014-Jul-26 00:34N 36°58' E 013°14'5 9.1
2014-Jul-26 00:00N 36°54' E 013°18'919.8 999 / 31012.9 5.4 23.622.8
2014-Jul-25 23:34N 36°55' E 013°29'1212.4
2014-Jul-25 22:34N 36°51' E 013°44'1312.6
2014-Jul-25 21:34N 36°48' E 013°59'1212.4
2014-Jul-25 20:34N 36°44' E 014°13'1212.1
2014-Jul-25 19:34N 36°41' E 014°28'1211.7
2014-Jul-25 18:34N 36°38' E 014°42'1212.1
2014-Jul-25 17:33N 36°34' E 014°57'1311.7
2014-Jul-25 16:24N 36°33' E 015°13'4710.7
2014-Jul-25 12:00N 36°30' E 016°12'13010.9 310 / 51013.1 5.4 0.525.821.1
2014-Jul-25 00:00N 36°24' E 018°54'21511.5 310 / 101011.4 5.4 1.024.920.4
2014-Jul-24 05:20N 36°35' E 023°21'1614.1
2014-Jul-24 04:11N 36°49' E 023°31'2914.7
2014-Jul-24 02:11N 37°14' E 023°51'914.8
2014-Jul-24 01:33N 37°21' E 023°57'1414.3
2014-Jul-24 00:33N 37°34' E 024°07'1414.1
2014-Jul-23 23:33N 37°45' E 024°17'1414.2
2014-Jul-23 22:33N 37°54' E 024°31'2613.2
2014-Jul-23 20:33N 38°17' E 024°48'1414.0
2014-Jul-23 19:33N 38°29' E 024°56'2813.8
2014-Jul-23 17:32N 38°54' E 025°12'3114.2
2014-Jul-23 15:20N 39°22' E 025°31'1113.6
2014-Jul-23 14:32N 39°31' E 025°37'1313.2
2014-Jul-23 13:33N 39°43' E 025°44'1413.9
2014-Jul-23 12:33N 39°56' E 025°52'99 7.6
2014-Jul-22 23:33N 40°47' E 027°44'1313.1
2014-Jul-22 22:33N 40°49' E 028°01'2713.1
2014-Jul-22 20:31N 40°53' E 028°35'1212.8
2014-Jul-22 19:33N 40°55' E 028°52'3 2.0
2014-Jul-22 18:15N 40°57' E 028°54'0 0.0
2014-Jul-22 17:27N 40°57' E 028°54'0 0.0
2014-Jul-22 15:33N 40°57' E 028°54'  
2014-Jul-18 12:31N 45°10' E 036°34'0 0.1
2014-Jul-18 11:28N 45°10' E 036°34'  
Track history (hours):
 
Tides and Currents Weather Stations Pressure Air Temp Water Temp Dewpoint Dewpoint Depression Visibility Wind Speed Wind Dir Waves Ship Positions

Tramper

Last reported at 2014-Jul-28 06:00 UTC. Time now 2014-Jul-28 16:27 UTC.
Position N 36°36' E 000°12'.

Length 101 m; beam 20 m.

Type: Cargo ship. MMSI: 245867000.

Barometer 1015.0 mb
Air temperature 24.5 ° C
Visibility: greater than 5.4 NM
Dewpoint 20.9 ° C

Date/timePositionNaut miles runAvg speedWind from/ knotsBaromVisibWave heightAir tempDewpointWater temp
2014-Jul-28 06:00N 36°36' E 000°12'6612.2 1015.0 5.4 24.520.9
2014-Jul-28 00:33N 36°50' E 001°33'1212.0
2014-Jul-27 23:33N 36°51' E 001°48'4212.1
2014-Jul-27 20:05N 36°57' E 002°39'711.4
2014-Jul-27 19:26N 36°58' E 002°49'14 9.8
2014-Jul-27 18:00N 37°00' E 003°06'2114.2 080 / 81014.410.8 0.527.222.5
2014-Jul-27 16:33N 37°02' E 003°32'3711.9
2014-Jul-27 13:24N 37°07' E 004°18'1410.1
2014-Jul-27 12:00N 37°06' E 004°36'7012.8 080 / 61016.4 5.4 0.527.022.7
2014-Jul-27 06:30N 37°18' E 006°03'3511.5
2014-Jul-27 03:28N 37°23' E 006°46'1111.8
2014-Jul-27 02:34N 37°24' E 006°59'6311.9
2014-Jul-26 21:14N 37°33' E 008°19'1012.4
2014-Jul-26 20:25N 37°34' E 008°31'1112.1
2014-Jul-26 19:31N 37°36' E 008°45'1711.0
2014-Jul-26 18:00N 37°36' E 009°06'2011.6 290 / 151010.8 5.4 1.026.121.6
2014-Jul-26 16:17N 37°38' E 009°31'3910.4
2014-Jul-26 12:33N 37°38' E 010°20'4 7.0
2014-Jul-26 12:00N 37°36' E 010°24'3311.5 270 / 251009.4 2.2 1.026.223.4
2014-Jul-26 09:06N 37°28' E 011°04'3412.5
2014-Jul-26 06:23N 37°18' E 011°45'1012.5
2014-Jul-26 05:34N 37°16' E 011°58'1812.5
2014-Jul-26 04:07N 37°10' E 012°19'1012.7
2014-Jul-26 03:20N 37°08' E 012°32'1012.6
2014-Jul-26 02:34N 37°05' E 012°43'1312.7
2014-Jul-26 01:33N 37°02' E 012°59'1312.7
2014-Jul-26 00:34N 36°58' E 013°14'5 9.1
2014-Jul-26 00:00N 36°54' E 013°18'919.8 999 / 31012.9 5.4 23.622.8
2014-Jul-25 23:34N 36°55' E 013°29'1212.4
2014-Jul-25 22:34N 36°51' E 013°44'1312.6
2014-Jul-25 21:34N 36°48' E 013°59'1212.4
2014-Jul-25 20:34N 36°44' E 014°13'1212.1
2014-Jul-25 19:34N 36°41' E 014°28'1211.7
2014-Jul-25 18:34N 36°38' E 014°42'1212.1
2014-Jul-25 17:33N 36°34' E 014°57'1311.7
2014-Jul-25 16:24N 36°33' E 015°13'4710.7
2014-Jul-25 12:00N 36°30' E 016°12'13010.9 310 / 51013.1 5.4 0.525.821.1
2014-Jul-25 00:00N 36°24' E 018°54'21511.5 310 / 101011.4 5.4 1.024.920.4
2014-Jul-24 05:20N 36°35' E 023°21'1614.1
2014-Jul-24 04:11N 36°49' E 023°31'2914.7
2014-Jul-24 02:11N 37°14' E 023°51'914.8
2014-Jul-24 01:33N 37°21' E 023°57'1414.3
2014-Jul-24 00:33N 37°34' E 024°07'1414.1
2014-Jul-23 23:33N 37°45' E 024°17'1414.2
2014-Jul-23 22:33N 37°54' E 024°31'2613.2
2014-Jul-23 20:33N 38°17' E 024°48'1414.0
2014-Jul-23 19:33N 38°29' E 024°56'2813.8
2014-Jul-23 17:32N 38°54' E 025°12'3114.2
2014-Jul-23 15:20N 39°22' E 025°31'1113.6
2014-Jul-23 14:32N 39°31' E 025°37'1313.2
2014-Jul-23 13:33N 39°43' E 025°44'1413.9
2014-Jul-23 12:33N 39°56' E 025°52'99 7.6
2014-Jul-22 23:33N 40°47' E 027°44'1313.1
2014-Jul-22 22:33N 40°49' E 028°01'2713.1
2014-Jul-22 20:31N 40°53' E 028°35'1212.8
2014-Jul-22 19:33N 40°55' E 028°52'3 2.0
2014-Jul-22 18:15N 40°57' E 028°54'0 0.0
2014-Jul-22 17:27N 40°57' E 028°54'0 0.0
2014-Jul-22 15:33N 40°57' E 028°54'  
2014-Jul-18 12:31N 45°10' E 036°34'0 0.1
2014-Jul-18 11:28N 45°10' E 036°34'  

Dump ship's entire track history